Flag for Norway Weather past 2 weeks in Sandnessjøen, Norway

Now
45 °F

Sunny.


Feels Like: 42 °F
Forecast: 38 / 43 °F
Wind: 5 mph from North

Location: Sandnessjoen / Stokka

Current Time: Apr 27, 2015 at 9:01:07 PM

Latest Report: Apr 27, 2015 at 8:20 PM


Visibility: 10 mi

Pressure: 29.65 "Hg

Humidity: 53%

Dew point: 28 °F

Location of SandnessjøenLocation

Historic Weather in Sandnessjøen — Graph

°F

Sandnessjøen temperature yesterday

Maximum temperature yesterday: 43 °F (at 2:50 PM)
Minimum temperature yesterday: 34 °F (at 10:50 PM)
Average temperature yesterday: 40 °F

Past Weeks' High & Low Weather Summary

 TemperatureHumidityPressure
High48 °F (Apr 27, 2:50 PM)100% (Apr 12, 9:20 PM)30.33 "Hg (Apr 12, 9:20 PM)
Low32 °F (Apr 12, 9:20 PM)39% (Apr 14, 2:50 PM)29.27 "Hg (Apr 23, 7:50 AM)
Average41 °F77%29.76 "Hg
* Reported Apr 12 7:20 PM — Apr 27 7:50 PM, Sandnessjøen, Weather by CustomWeather, © 2015

Note: Actual official high and low records may vary slightly from our data, if they occured in-between our weather recording intervals... More about our weather records

Advertising

Sandnessjøen weather history for previous 24 hours

 ConditionsComfort  
Time TempWeatherWind HumidityBarometerVisibility
7:50 PM
Mon, Apr 27
45 °FPassing clouds.5 mph57%29.65 "HgN/A
7:20 PM46 °FSunny.2 mph46%29.65 "Hg10 mi
6:50 PM46 °FPassing clouds.3 mph46%29.65 "HgN/A
6:20 PM48 °FPassing clouds.3 mph43%29.65 "HgN/A
5:50 PM48 °FPassing clouds.3 mph43%29.65 "HgN/A
5:20 PM48 °FPassing clouds.2 mph43%29.65 "HgN/A
4:50 PM48 °FPassing clouds.3 mph43%29.65 "HgN/A
4:20 PM48 °FPassing clouds.3 mph43%29.65 "HgN/A
3:50 PM48 °FPassing clouds.3 mph43%29.65 "HgN/A
3:20 PM48 °FPassing clouds.3 mph50%29.65 "HgN/A
2:50 PM48 °FPassing clouds.3 mph50%29.65 "HgN/A
2:20 PM46 °FPassing clouds.5 mph62%29.65 "HgN/A
1:50 PM46 °FScattered clouds.3 mph57%29.65 "HgN/A
1:20 PM45 °FScattered showers. Scattered clouds.7 mph66%29.65 "HgN/A
12:50 PM43 °FScattered showers. Scattered clouds.5 mph76%29.65 "HgN/A
12:20 PM41 °FScattered showers. Scattered clouds.10 mph76%29.65 "HgN/A
11:50 AM46 °FScattered clouds.3 mph57%29.62 "HgN/A
11:20 AM45 °FPassing clouds.5 mph57%29.62 "HgN/A
10:20 AM43 °FPassing clouds.5 mph71%29.62 "HgN/A
9:50 AM43 °FPassing clouds.6 mph76%29.62 "HgN/A
8:50 AM41 °FSunny.7 mph76%29.62 "Hg10 mi
8:20 AM41 °FPassing clouds.6 mph76%29.59 "HgN/A
7:50 AM37 °FScattered showers. Scattered clouds.7 mph93%29.62 "HgN/A
6:50 AM39 °FScattered showers. Broken clouds.3 mph81%29.59 "HgN/A
6:20 AM39 °FScattered showers. Broken clouds.5 mph75%29.59 "HgN/A
5:50 AM37 °FScattered showers. Broken clouds.7 mph81%29.59 "HgN/A
5:20 AM37 °FPassing clouds.2 mph81%29.59 "HgN/A
4:50 AM36 °FScattered showers. Passing clouds.2 mph81%29.59 "HgN/A
10:50 PM
Sun, Apr 26
34 °FClear.2 mph81%29.53 "Hg10 mi
10:20 PM36 °FSunny.1 mph75%29.53 "Hg10 mi
9:50 PM39 °FPassing clouds.3 mph65%29.53 "HgN/A
9:20 PM39 °FSunny.6 mph70%29.50 "Hg10 mi
Weather by CustomWeather, © 2015

See weather overviewHow to use our weather pages